This is the latest recevied weather packets stored in our database for station/object KF4WSW-13. If no packets are shown the sender has not sent any weather packets the latest 10 day(s).
| Time | Temp. | Humidity | Pressure | Rain* | Wind** | Luminosity | Snow |
|---|---|---|---|---|---|---|---|
| 1777473872 | 28.33° C | 60% | 1015.6 hPa | 0 mm | - | 587 W/m² | - |
| 1777473569 | 28.33° C | 61% | 1015.8 hPa | 0 mm | - | 581 W/m² | - |
| 1777473265 | 28.33° C | 62% | 1015.8 hPa | 0 mm | - | 504 W/m² | - |
| 1777472961 | 27.22° C | 65% | 1015.6 hPa | 0 mm | - | 524 W/m² | - |
| 1777472658 | 26.67° C | 67% | 1015.7 hPa | 0 mm | - | 521 W/m² | - |
| 1777472354 | 27.78° C | 67% | 1015.7 hPa | 0 mm | - | 462 W/m² | - |
| 1777472052 | 27.78° C | 69% | 1015.8 hPa | 0 mm | - | 526 W/m² | - |
| 1777471747 | 26.67° C | 72% | 1015.8 hPa | 0 mm | - | 493 W/m² | - |
| 1777471444 | 26.67° C | 72% | 1015.9 hPa | 0 mm | - | 488 W/m² | - |
| 1777471140 | 26.67° C | 73% | 1015.9 hPa | 0 mm | - | 475 W/m² | - |
| 1777470837 | 25.56° C | 75% | 1015.9 hPa | 0 mm | - | 395 W/m² | - |
| 1777470535 | 25° C | 77% | 1015.8 hPa | 0 mm | - | 378 W/m² | - |
| 1777470230 | 25° C | 77% | 1015.7 hPa | 0 mm | - | 369 W/m² | - |
| 1777469926 | 24.44° C | 79% | 1016 hPa | 0 mm | - | 393 W/m² | - |
| 1777469622 | 24.44° C | 80% | 1015.8 hPa | 0 mm | - | 364 W/m² | - |
| 1777469317 | 25° C | 80% | 1015.9 hPa | 0 mm | - | 376 W/m² | - |
| 1777469013 | 25° C | 80% | 1016 hPa | 0 mm | - | 366 W/m² | - |
| 1777468708 | 25° C | 80% | 1016 hPa | 0 mm | - | 344 W/m² | - |
| 1777468405 | 24.44° C | 81% | 1016 hPa | 0 mm | - | 322 W/m² | - |
| 1777468101 | 24.44° C | 82% | 1016 hPa | 0 mm | - | 315 W/m² | - |
| 1777467798 | 23.89° C | 83% | 1015.8 hPa | 0 mm | - | 298 W/m² | - |
| 1777467493 | 23.89° C | 84% | 1015.6 hPa | 0 mm | - | 249 W/m² | - |
| 1777467189 | 23.33° C | 86% | 1015.6 hPa | 0 mm | - | 252 W/m² | - |
| 1777466886 | 23.33° C | 87% | 1015.8 hPa | 0 mm | - | 202 W/m² | - |
| 1777466584 | 22.78° C | 87% | 1015.6 hPa | 0 mm | - | 144 W/m² | - |
* Rain latest hour (hover to see other rain measurements)
** Current wind speed in m/s (hover to see current wind gust speed)